{"data":{"norad_id":47384,"epoch":"2026-09-20T03:41:38.721696Z","epoch_age_seconds":37734,"freshness":"FRESH","line1":"1 47384U 21005AM  26263.15392039  .00000963  00000+0  42779-4 0  9995","line2":"2 47384  53.1589 212.4286 0001321  86.0598 274.0555 15.31710862313174","mean_motion":15.31710862,"eccentricity":0.0001321,"inclination_deg":53.1589,"raan_deg":212.4286,"arg_perigee_deg":86.0598,"mean_anomaly_deg":274.0555,"bstar":4.2779e-5,"rev_number":31317,"period_min":94.012521274397,"perigee_km":469.80288398638,"apogee_km":471.61234873403,"semimajor_km":6848.8446163602,"source":"CELESTRAK","updated_at":"2026-09-20T09:00:38.593483Z"}}